967  
ASUS41 KALY 251210  
RWRALY  
 
NEW YORK STATE HOURLY WEATHER ROUNDUP  
NATIONAL WEATHER SERVICE ALBANY NY  
800 AM EDT TUE JUL 25 2017  
 
NOTE: "FAIR" INDICATES FEW OR NO CLOUDS BELOW 12,000 FEET WITH NO  
SIGNIFICANT WEATHER AND/OR NO S TO VISIBILITY
.  
 
NYZ032-033-038>043-046>054-057>066-NYZ062>081-082-084-251300-  
EAST  
 
 
CITY SKY/WX TMP DP RH WIND PRES REMARKS
 
ALBANY LGT RAIN 59 54 83 CALM 30.07R  
GLENS FALLS CLOUDY 58 55 90 CALM 30.07S  
POUGHKEEPSIE CLOUDY 59 55 87 E3 30.05R  
NEWBURGH CLOUDY 57 57 100 E7 30.07R FOG  
MONTGOMERY CLOUDY 60 58 92 E6 30.06R  
WHITE PLAINS PTSUNNY 60 56 86 NE3 30.05R  
ISLIP CLOUDY 64 59 83 N8 30.04R  
NEW YORK CITY CLOUDY 64 61 90 N7 30.04R  
CENTRAL PARK CLOUDY 64 59 83 VRB5 30.07R  

 
 
NYZ005>009-017-018-044>046-055-056-251300-  
CENTRAL  
 
 
CITY SKY/WX TMP DP RH WIND PRES REMARKS
 
FULTON LGT RAIN 61 59 93 NW6 30.04R FOG  
SYRACUSE DRIZZLE 60 60 100 W7 30.04R  
ROME CLOUDY 59 58 96 E6 30.05R  
ELMIRA CLOUDY 64 59 83 W6 30.06R  
BINGHAMTON CLOUDY 60 59 96 VRB6 30.05R  

 
 
NYZ026>034-041>043-087-251300-  
NORTH  
 
 
CITY SKY/WX TMP DP RH WIND PRES REMARKS
 
WATERTOWN LGT RAIN 58 58 100 N12 30.04R VSB 3/4  
FORT DRUM NOT AVBL  
OGDENSBURG CLOUDY 57 56 97 NE10G18 30.07R  
MASSENA CLOUDY 57 56 96 NE15G22 30.10R  
SARANAC LAKE CLOUDY 53 53 100 NE6 30.06R FOG  
PLATTSBURGH LGT RAIN 57 55 93 NE5 30.10R  

 
 
NYZ001>004-010>016-019>021-085-251300-  
WEST  
 
 
CITY SKY/WX TMP DP RH WIND PRES REMARKS
 
NIAGARA FALLS CLOUDY 64 55 72 N9 30.13R  
BUFFALO CLOUDY 61 57 87 NW5 30.13R  
DUNKIRK CLOUDY 63 57 81 N12 30.14R  
JAMESTOWN CLOUDY 57 54 88 N8 30.14R  
WELLSVILLE CLOUDY 58 55 90 NW10 30.13R  
ROCHESTER DRIZZLE 61 58 90 NW6 30.10R FOG  
PENN YAN CLOUDY 61 56 83 NW8 30.09R  

 
 
KEY  
WCI = WIND CHILL INDEX  
VSB = VISIBILITY  
HX = HEAT INDEX  

 
 
 
CLICK HERE TO GO TO PREVIOUS BULLETINS.

The Nexlab NY Page
The Nexlab VT Page
The Nexlab MA Page
The Nexlab CT Page Main Text Page